Regional Weather Roundup
Issued by NWS Green Bay, WI

Home | Current Version | Previous Version | Text Only | Print | Product List | Glossary On
Versions: 1 2 3 4 5 6 7 8 9 10 11 12 13 14 15 16 17 18 19 20 21 22 23 24 25 26 27 28 29 30 31 32 33 34 35 36 37 38 39 40 41 42 43 44 45 46 47 48 49 50
000
ASUS43 KGRB 190100
RWRGRB

NORTH-CENTRAL AND NORTHEAST WISCONSIN REGIONAL WEATHER ROUNDUP
NATIONAL WEATHER SERVICE GREEN BAY WI
800 PM CDT FRI AUG 18 2017

WIZ005-009-010>012-018-019-190200-
NORTH CENTRAL WISCONSIN

CITY           SKY/WX    TMP DP  RH WIND       PRES   REMARKS
IRONWOOD       CLOUDY    61  59  93 CALM      29.87R
MANITOWISH WTR NOT AVBL
ARBOR VITAE    NOT AVBL
EAGLE RIVER    NOT AVBL
LAND O LAKES   NOT AVBL
RHINELANDER    CLOUDY    62  57  83 W5        29.88S
PHILLIPS       NOT AVBL
ANTIGO         NOT AVBL
TOMAHAWK       NOT AVBL
MERRILL        NOT AVBL
$$

WIZ013-073-190200-
NORTHEAST WISCONSIN

CITY           SKY/WX    TMP DP  RH WIND       PRES   REMARKS
IRON MOUNTAIN  CLOUDY    63  55  75 NW5       29.83S
MARINETTE      CLOUDY    63  57  81 CALM      29.84S
$$

WIZ017-030-035>037-045-190200-
CENTRAL WISCONSIN

CITY           SKY/WX    TMP DP  RH WIND       PRES   REMARKS
MEDFORD        NOT AVBL
WAUSAU         PTCLDY    65  58  78 W6        29.86S
MOSINEE        MOCLDY    64  61  88 W6        29.89S
MARSHFIELD     CLOUDY    65  62  90 W7        29.88S FOG
WISC RAPIDS    CLOUDY    66  64  93 W5        29.89S
STEVENS POINT  NOT AVBL
WAUPACA        NOT AVBL
SHAWANO        NOT AVBL
CLINTONVILLE   NOT AVBL
WAUTOMA        CLOUDY    67  61  81 W3        29.88S
$$

WIZ038-039-048-051-190200-
FOX VALLEY

CITY           SKY/WX    TMP DP  RH WIND       PRES   REMARKS
NWS GREEN BAY  CLOUDY    66  62  87 W9        29.84R
APPLETON       MOCLDY    66  57  72 W8        29.85R
OSHKOSH        CLOUDY    68  60  75 W8        29.85S
FOND DU LAC    CLOUDY    69  59  70 NW3       29.86R
$$

WIZ022-050-052-190200-
EAST CENTRAL WISCONSIN

CITY           SKY/WX    TMP DP  RH WIND       PRES   REMARKS
EPHRAIM        NOT AVBL
WASHINGTON ISL NOT AVBL
STURGEON BAY   MOCLDY    65  58  78 N10       29.84R
MANITOWOC      NOT AVBL
SHEBOYGAN      CLEAR     68  62  81 NW6       29.84S
$$

LMZ563-521-522-541>543-190200-
LAKESHORE

STATION/POSITION TIME  TEMP    WIND        PRES    VSBY  WAVE
                       AIR SEA DIR/SP/G                  HT/PER
                 (UTC) (F)     (DEG/KT/KT) (MB)    (MI)  (FT/S)
SHEBOYGAN LKSHOR 0000   72     310/  5/  6 1009.8R
KEWAUNEE LKSHORE 0030   69     290/  2/  4 1009.1R
NORTHPORT PIER   0040   67     310/ 11/ 16 1009.8R
N MID LAKE BUOY  2350   65 67  300/ 17/ 21 1009.6R         2/ 4
S GREEN BAY BUOY 0030   70 71  360/ 14/ 17 1009.7R
SISTER BAY LKSHO 0018   67     320/ 16/ 18   N/A
MENOMINEE LKSHOR 0030   67     330/  8/  9 1009.8S
$$



USA.gov is the U.S. government's official web portal to all federal, state and local government web resources and services.